Simultaneous Nadir Overpasses (SNOs) Predictions

Prediction of SNOs between LANDSAT-8 and NOAA-19 Satellite Orbit:

Table of predicted SNOs for the next 14.0 days since TLE Epoch: 1/28/2023
Index Date (LANDSAT-8) Time (LANDSAT-8) Lat,Lon (LANDSAT-8) SZA (LANDSAT-8 ) Date (NOAA-19) Time (NOAA-19) Lat,Lon (NOAA-19) SZA (NOAA-19 ) Distance(km) Time Diff (sec)
1 01/28/2023 18:45:35 -80.92, 115.47 79.55 01/28/2023 18:45:23 -80.92, 115.42 79.56 0.87 12
2 01/31/2023 00:19:19 80.92,-148.01 99.83 01/31/2023 00:18:06 80.92,-148.08 99.81 1.34 73
3 01/31/2023 01:08:46 -80.92, 19.62 80.18 01/31/2023 01:09:04 -80.92, 19.79 80.16 3.01 18
4 02/02/2023 06:42:29 80.93, 116.34 99.21 02/02/2023 06:41:47 80.92, 116.44 99.20 2.01 42
5 02/02/2023 07:31:56 -80.93, -76.02 80.80 02/02/2023 07:32:45 -80.92, -75.90 80.79 2.46 49
6 02/04/2023 13:05:39 80.93, 20.56 98.54 02/04/2023 13:05:29 80.92, 20.54 98.53 1.12 10
7 02/06/2023 18:39:23 -80.92, 117.03 82.16 02/06/2023 18:38:10 -80.92, 117.17 82.17 2.36 73
8 02/06/2023 19:28:49 80.92, -75.34 97.84 02/06/2023 19:29:11 80.92, -75.42 97.84 1.37 22
9 02/09/2023 01:02:32 -80.93, 21.37 82.85 02/09/2023 01:01:51 -80.92, 21.34 82.87 1.27 41



Historial Predications of SNOs between LANDSAT-8 and NOAA-19
